Regional Weather Roundup
Issued by NWS

Home | Current Version | Previous Version | Text Only | Print | Product List | Glossary Off
Versions: 1 2 3 4 5 6 7 8 9 10 11 12 13 14 15 16 17 18 19 20 21 22 23 24 25 26 27 28 29 30 31 32 33 34 35 36 37 38 39 40 41 42 43 44 45 46 47 48 49 50

000
ASUS43 KTOP 170359
RWRKS

WEATHER ROUNDUP FOR KANSAS
NATIONAL WEATHER SERVICE GOODLAND KS
1000 PM CST SAT DEC 16 2017

NOTE:  "FAIR" INDICATES FEW OR NO CLOUDS BELOW 12,000 FEET WITH NO
SIGNIFICANT WEATHER AND/OR OBSTRUCTIONS TO VISIBILITY.

KSZ001>006-013>018-027>032-041>047-170500-
NORTHWEST KANSAS

CITY           SKY/WX    TMP DP  RH WIND       PRES   REMARKS
GOODLAND       CLOUDY    29  25  85 N14       29.88R WCI  18
HAYS           CLOUDY    37  22  54 NE3       29.84R
HILL CITY      PTCLDY    38  23  55 NE14      29.87R WCI  30
RUSSELL        CLOUDY    47  28  47 S10       29.83R
$$

KSZ061>065-074>080-084>089-170500-
SOUTHWEST KANSAS

CITY           SKY/WX    TMP DP  RH WIND       PRES   REMARKS
DODGE CITY     CLOUDY    48  25  40 S14       29.81F
GARDEN CITY    CLOUDY    39  22  50 SE10      29.78S WCI  32
GREAT BEND     CLOUDY    49  26  41 S10       29.84F
LIBERAL        CLOUDY    48  27  44 S12       29.78S
$$

KSZ066>073-081>083-090>101-170500-
SOUTHEAST KANSAS

CITY           SKY/WX    TMP DP  RH WIND       PRES   REMARKS
CHANUTE        CLOUDY    50  28  42 SE9       29.97S
COFFEYVILLE    CLOUDY    54  28  36 S18G24    29.96F
HUTCHINSON     CLOUDY    52  27  38 S12       29.88S
MEDICINE LODGE   N/A     49  26  41 S6        29.87R
NEWTON         CLOUDY    52  25  35 S17       29.90S
PARSONS        CLOUDY    52  28  39 S6        29.98S
WICHITA INTL   CLOUDY    53  26  35 S10       29.89S
WICHITA JABRA  CLOUDY    51  27  39 S8        29.90S
WICHITA MCCONL CLOUDY    52  25  34 S12       29.90R
WINFIELD       CLOUDY    53  26  35 S21G28    29.92S
$$

KSZ007>012-019>026-033>040-048>060-102>105-170500-
NORTHEAST KANSAS

CITY           SKY/WX    TMP DP  RH WIND       PRES   REMARKS
CONCORDIA      PTCLDY    36  25  64 CALM      29.88R
EMPORIA        MOCLDY    46  26  45 SE8       29.93S
LAWRENCE       CLOUDY    41  28  60 E5        29.96R
MANHATTAN      CLOUDY    45  26  47 CALM      29.92R
OLATHE IND     CLOUDY    45  27  49 S7        29.98R
OLATHE EXE     MOCLDY    43  27  53 S7        29.97R
SALINA         CLOUDY    49  29  46 S9        29.89R
TOPEKA BILLARD CLOUDY    42  27  55 SE3       29.95R
TOPEKA FORBES  CLOUDY    45  27  49 SE7       29.94R
$$




USA.gov is the U.S. government's official web portal to all federal, state and local government web resources and services.